Fecha;EUA;CER;SPREAD (EUA - CER)
02-01-2019;24.98;0.24;"24,74"
03-01-2019;23.03;0.24;"22,79"
04-01-2019;23.49;0.24;"23,25"
07-01-2019;22.10;0.24;"21,86"
08-01-2019;22.62;0.24;"22,38"
09-01-2019;21.89;0.25;"21,64"
10-01-2019;21.94;0.24;"21,7"
11-01-2019;22.59;0.24;"22,35"
14-01-2019;22.40;0.23;"22,17"
15-01-2019;22.46;0.24;"22,22"
16-01-2019;23.27;0.24;"23,03"
17-01-2019;23.49;0.24;"23,25"
18-01-2019;24.71;0.24;"24,47"
21-01-2019;24.28;0.24;"24,04"
22-01-2019;25.01;0.24;"24,77"
23-01-2019;24.54;0.24;"24,3"
24-01-2019;23.81;0.24;"23,57"
25-01-2019;23.76;0.24;"23,52"
28-01-2019;22.60;0.23;"22,37"
29-01-2019;23.20;0.24;"22,96"
30-01-2019;22.90;0.23;"22,67"
31-01-2019;22.14;0.23;"21,91"
01-02-2019;21.80;0.23;"21,57"
04-02-2019;22.89;0.22;"22,67"
05-02-2019;23.02;0.23;"22,79"
06-02-2019;23.55;0.22;"23,33"
07-02-2019;23.32;0.22;"23,1"
08-02-2019;22.20;0.22;"21,98"
11-02-2019;22.26;0.23;"22,03"
12-02-2019;20.57;0.23;"20,34"
13-02-2019;20.83;0.23;"20,6"
14-02-2019;19.67;0.23;"19,44"
15-02-2019;20.30;0.23;"20,07"
18-02-2019;19.89;0.23;"19,66"
19-02-2019;20.09;0.23;"19,86"
20-02-2019;20.36;0.23;"20,13"
21-02-2019;18.70;0.23;"18,47"
22-02-2019;18.84;0.23;"18,61"
25-02-2019;19.14;0.23;"18,91"
26-02-2019;19.53;0.23;"19,3"
27-02-2019;21.16;0.23;"20,93"
28-02-2019;21.59;0.23;"21,36"
01-03-2019;22.18;0.23;"21,95"
04-03-2019;23.03;0.22;"22,81"
05-03-2019;22.87;0.22;"22,65"
06-03-2019;22.06;0.22;"21,84"
07-03-2019;23.17;0.22;"22,95"
08-03-2019;22.88;0.22;"22,66"
11-03-2019;22.20;0.23;"21,97"
12-03-2019;22.22;0.21;"22,01"
13-03-2019;22.17;0.21;"21,96"
14-03-2019;22.63;0.22;"22,41"
15-03-2019;22.36;0.22;"22,14"
18-03-2019;21.69;0.22;"21,47"
19-03-2019;21.01;0.22;"20,79"
20-03-2019;21.54;0.22;"21,32"
21-03-2019;20.83;0.22;"20,61"
22-03-2019;20.52;0.22;"20,3"
25-03-2019;20.83;0.23;"20,6"
26-03-2019;21.43;0.23;"21,2"
27-03-2019;21.74;0.23;"21,51"
28-03-2019;22.15;0.23;"21,92"
29-03-2019;21.44;0.23;"21,21"
01-04-2019;21.81;0.23;"21,58"
02-04-2019;22.10;0.23;"21,87"
03-04-2019;23.10;0.23;"22,87"
04-04-2019;24.36;0.23;"24,13"
05-04-2019;24.52;0.23;"24,29"
08-04-2019;24.21;0.23;"23,98"
09-04-2019;25.47;0.23;"25,24"
10-04-2019;26.10;0.23;"25,87"
11-04-2019;27.31;0.23;"27,08"
12-04-2019;26.49;0.24;"26,25"
15-04-2019;26.54;0.24;"26,3"
16-04-2019;26.92;0.23;"26,69"
17-04-2019;27.38;0.23;"27,15"
18-04-2019;26.85;0.23;"26,62"
23-04-2019;27.42;0.23;"27,19"
24-04-2019;27.33;0.22;"27,11"
25-04-2019;27.21;0.23;"26,98"
26-04-2019;25.78;0.22;"25,56"
29-04-2019;26.30;0.22;"26,08"
30-04-2019;26.17;0.22;"25,95"
01-05-2019;25.65;0.22;"25,43"
02-05-2019;24.62;0.22;"24,4"
03-05-2019;25.12;0.22;"24,9"
06-05-2019;25.22;0.22;25
07-05-2019;26.30;0.22;"26,08"
08-05-2019;26.79;0.22;"26,57"
09-05-2019;26.37;0.22;"26,15"
10-05-2019;25.54;0.22;"25,32"
13-05-2019;24.88;0.22;"24,66"
14-05-2019;25.81;0.22;"25,59"
15-05-2019;25.83;0.22;"25,61"
16-05-2019;25.47;0.22;"25,25"
17-05-2019;24.92;0.22;"24,7"
20-05-2019;25.12;0.22;"24,9"
21-05-2019;25.30;0.22;"25,08"
22-05-2019;26.29;0.22;"26,07"
23-05-2019;25.98;0.22;"25,76"
24-05-2019;25.40;0.22;"25,18"
27-05-2019;25.51;0.21;"25,3"
28-05-2019;25.40;0.21;"25,19"
29-05-2019;25.45;0.21;"25,24"
30-05-2019;25.22;0.21;"25,01"
31-05-2019;24.41;0.21;"24,2"
03-06-2019;23.68;0.21;"23,47"
04-06-2019;24.49;0.21;"24,28"
05-06-2019;24.19;0.21;"23,98"
07-06-2019;24.44;0.21;"24,23"
10-06-2019;25.13;0.20;"24,93"
11-06-2019;24.90;0.20;"24,7"
12-06-2019;24.77;0.20;"24,57"
13-06-2019;24.90;0.20;"24,7"
14-06-2019;24.99;0.20;"24,79"
17-06-2019;24.91;0.20;"24,71"
18-06-2019;25.03;0.20;"24,83"
19-06-2019;24.90;0.20;"24,7"
20-06-2019;24.98;0.20;"24,78"
21-06-2019;25.18;0.20;"24,98"
24-06-2019;26.31;0.20;"26,11"
25-06-2019;26.36;0.20;"26,16"
26-06-2019;27.34;0.21;"27,13"
27-06-2019;26.84;0.21;"26,63"
28-06-2019;26.23;0.21;"26,02"
01-07-2019;26.87;0.21;"26,66"
02-07-2019;26.67;0.21;"26,46"
03-07-2019;26.47;0.21;"26,26"
04-07-2019;25.97;0.21;"25,76"
05-07-2019;26.34;0.21;"26,13"
08-07-2019;26.69;0.21;"26,48"
09-07-2019;26.48;0.21;"26,27"
10-07-2019;28.12;0.21;"27,91"
11-07-2019;28.16;0.21;"27,95"
12-07-2019;28.76;0.21;"28,55"
15-07-2019;29.02;0.21;"28,81"
16-07-2019;28.44;0.22;"28,22"
17-07-2019;28.42;0.22;"28,2"
18-07-2019;27.74;0.22;"27,52"
19-07-2019;28.85;0.21;"28,64"
22-07-2019;28.95;0.19;"28,76"
23-07-2019;29.77;0.20;"29,57"
24-07-2019;29.11;0.20;"28,91"
25-07-2019;28.95;0.20;"28,75"
26-07-2019;28.25;0.20;"28,05"
29-07-2019;28.40;0.20;"28,2"
30-07-2019;27.87;0.21;"27,66"
31-07-2019;27.95;0.21;"27,74"
01-08-2019;29.42;0.21;"29,21"
02-08-2019;29.23;0.22;"29,01"
05-08-2019;28.67;0.21;"28,46"
06-08-2019;28.37;0.21;"28,16"
07-08-2019;28.23;0.21;"28,02"
08-08-2019;28.45;0.21;"28,24"
09-08-2019;28.09;0.21;"27,88"
12-08-2019;26.68;0.21;"26,47"
13-08-2019;27.08;0.21;"26,87"
14-08-2019;26.89;0.21;"26,68"
15-08-2019;25.95;0.21;"25,74"
16-08-2019;25.94;0.21;"25,73"
19-08-2019;26.55;0.21;"26,34"
20-08-2019;26.24;0.21;"26,03"
21-08-2019;26.06;0.21;"25,85"
22-08-2019;25.65;0.21;"25,44"
23-08-2019;25.06;0.21;"24,85"
26-08-2019;25.78;0.21;"25,57"
27-08-2019;25.40;0.21;"25,19"
28-08-2019;25.98;0.21;"25,77"
29-08-2019;26.45;0.21;"26,24"
30-08-2019;26.31;0.21;"26,1"
02-09-2019;25.19;0.21;"24,98"
03-09-2019;25.20;0.21;"24,99"
04-09-2019;25.52;0.21;"25,31"
05-09-2019;25.53;0.21;"25,32"
06-09-2019;25.03;0.21;"24,82"
09-09-2019;25.02;0.21;"24,81"
10-09-2019;26.72;0.21;"26,51"
11-09-2019;26.25;0.21;"26,04"
12-09-2019;26.43;0.21;"26,22"
13-09-2019;26.33;0.21;"26,12"
16-09-2019;27.03;0.20;"26,83"
17-09-2019;26.22;0.20;"26,02"
18-09-2019;25.45;0.21;"25,24"
19-09-2019;25.95;0.21;"25,74"
20-09-2019;26.52;0.21;"26,31"
23-09-2019;25.79;0.21;"25,58"
24-09-2019;25.53;0.21;"25,32"
25-09-2019;25.26;0.21;"25,05"
26-09-2019;25.62;0.21;"25,41"
27-09-2019;25.29;0.21;"25,08"
30-09-2019;24.86;0.21;"24,65"
01-10-2019;25.04;0.21;"24,83"
02-10-2019;24.20;0.21;"23,99"
03-10-2019;23.24;0.21;"23,03"
04-10-2019;23.01;0.21;"22,8"
07-10-2019;23.41;0.21;"23,2"
08-10-2019;22.56;0.21;"22,35"
09-10-2019;22.65;0.21;"22,44"
10-10-2019;23.26;0.21;"23,05"
11-10-2019;24.44;0.21;"24,23"
14-10-2019;24.15;0.21;"23,94"
15-10-2019;25.71;0.21;"25,5"
16-10-2019;26.30;0.21;"26,09"
17-10-2019;26.06;0.21;"25,85"
18-10-2019;25.87;0.21;"25,66"
21-10-2019;25.92;0.21;"25,71"
22-10-2019;25.71;0.22;"25,49"
23-10-2019;24.33;0.21;"24,12"
24-10-2019;24.43;0.21;"24,22"
25-10-2019;24.96;0.21;"24,75"
28-10-2019;25.11;0.20;"24,91"
29-10-2019;25.43;0.20;"25,23"
30-10-2019;25.98;0.21;"25,77"
31-10-2019;25.58;0.20;"25,38"
01-11-2019;25.30;0.20;"25,1"
04-11-2019;25.63;0.21;"25,42"
05-11-2019;25.50;0.21;"25,29"
06-11-2019;24.78;0.21;"24,57"
07-11-2019;24.99;0.21;"24,78"
08-11-2019;24.84;0.19;"24,65"
11-11-2019;24.92;0.18;"24,74"
12-11-2019;24.17;0.17;24
13-11-2019;24.38;0.17;"24,21"
14-11-2019;23.98;0.17;"23,81"
15-11-2019;23.85;0.16;"23,69"
18-11-2019;23.38;0.16;"23,22"
19-11-2019;23.44;0.16;"23,28"
20-11-2019;24.02;0.18;"23,84"
21-11-2019;23.93;0.18;"23,75"
22-11-2019;24.57;0.18;"24,39"
25-11-2019;24.43;0.18;"24,25"
26-11-2019;24.37;0.18;"24,19"
27-11-2019;24.98;0.18;"24,8"
28-11-2019;24.97;0.18;"24,79"
29-11-2019;25.12;0.18;"24,94"
02-12-2019;24.32;0.19;"24,13"
03-12-2019;24.02;0.19;"23,83"
04-12-2019;24.73;0.19;"24,54"
05-12-2019;24.69;0.19;"24,5"
06-12-2019;24.94;0.21;"24,73"
09-12-2019;25.12;0.22;"24,9"
10-12-2019;24.94;0.22;"24,72"
11-12-2019;24.48;0.23;"24,25"
12-12-2019;25.07;0.24;"24,83"
13-12-2019;24.02;0.24;"23,78"
16-12-2019;24.86;0.25;"24,61"
17-12-2019;25.91;0.26;"25,65"
18-12-2019;26.43;0.26;"26,17"
19-12-2019;26.57;0.26;"26,31"
20-12-2019;26.50;0.26;"26,24"
23-12-2019;26.38;0.26;"26,12"
24-12-2019;25.92;0.26;"25,66"
27-12-2019;26.54;0.26;"26,28"
30-12-2019;24.93;0.26;"24,67"
31-12-2019;24.51;0.25;"24,26"
